Location: Taupo
(38.6830°S, 176.0830°E)
Time: 08:07:01
(UTC+13:00)

Cosmos 1733 Rocket - Pass Details

Date: 24 January 2019
Orbit: 604 x 627 km, 82.5° (Epoch: 15 October)

Event Time Altitude Azimuth Distance (km) Brightness Sun altitude
Rises 22:51:19 0° 176° (S) 2,920 7.2 -21.5°
Reaches altitude 10° 22:53:51 10° 163° (SSE) 2,002 6.1 -21.8°
Enters shadow 22:57:14 27° 114° (ESE) 1,200 4.4 -22.2°
